Temperature
20 19 19 19 19 19 19 19 20 20 20 20 20 19 19 19 19 19 19 19 19 19 19 19 19 19 19 19 19 19 19 19 19 19 19 19 19 19 19 19 19 19 18
20 20 20 19 19 19 19 19 19 20 20 20 20 20 19 19 19 19 19 19 19 19 19 19 19 19 19 19 19 19 19 19 19 19 19 19 19 19 19 19 19 19 18
20 20 20 19 19 19 19 19 19 19 19 19 19 19 19 19 19 19 19 19 19 19 19 19 19 19 19 19 19 19 19 19 19 19 19 19 19 19 19 19 19 19 18
20 20 20 20 19 19 19 19 19 19 19 19 19 19 19 19 19 19 19 19 19 19 19 19 19 19 19 19 19 19 19 19 19 19 19 19 19 19 19 19 19 18 18
20 20 20 20 19 19 19 19 19 19 19 19 19 19 19 19 19 19 19 19 19 19 19 19 19 19 19 19 19 19 19 19 19 19 19 19 19 19 19 19 19 18 18
20 20 20 20 20 19 19 19 19 19 19 19 19 19 19 19 19 19 19 19 19 19 19 19 19 18 18 18 19 19 19 19 18 19 19 19 19 19 18 19 18 18 18
21 20 20 20 20 19 19 19 19 19 19 19 19 19 19 19 19 19 19 19 19 19 19 19 18 18 18 18 18 18 18 18 18 18 18 18 18 18 18 18 18 18 18
21 20 20 20 20 20 19 19 19 19 19 19 19 19 19 19 19 19 19 19 19 19 18 18 18 18 18 18 18 18 18 18 18 18 18 18 18 18 18 18 18 18 18
20 20 20 20 20 20 19 19 19 19 19 19 19 19 19 19 19 19 19 19 19 18 18 18 18 18 18 18 18 18 18 18 18 18 18 18 18 18 18 18 18 18 18
20 20 20 20 20 20 20 19 19 19 19 19 19 19 19 19 19 19 19 19 19 18 18 18 18 18 18 18 18 18 18 18 18 18 18 18 18 18 18 18 18 18 18
20 20 20 20 20 20 20 19 19 19 19 19 19 19 19 19 19 19 19 19 18 18 18 18 18 18 18 18 18 18 18 18 18 18 18 18 18 18 18 18 18 18 18
20 20 20 20 20 20 19 19 19 19 19 19 19 19 19 19 19 19 19 19 19 18 18 18 18 18 18 18 18 18 18 18 18 18 18 18 18 18 18 18 18 18 18
20 20 20 20 20 20 19 19 19 19 19 19 19 18 18 18 18 18 18 19 19 19 18 18 18 18 18 18 17 18 18 18 18 18 18 18 18 18 18 18 18 18 18
20 20 20 20 20 20 20 19 19 19 19 19 19 18 18 18 18 18 18 18 18 19 18 18 18 18 18 17 17 17 18 18 18 18 17 17 17 17 17 18 18 18 17
19 20 20 20 20 20 20 19 19 19 19 19 19 18 18 18 18 18 18 18 18 18 18 18 18 18 18 17 17 18 18 18 18 17 17 17 17 17 17 17 18 18 17
19 19 19 19 19 19 19 19 19 19 19 19 18 18 18 18 18 18 18 18 18 18 18 18 18 18 18 18 18 18 18 18 18 17 17 17 17 17 17 17 17 17 17
18 18 19 19 19 19 19 19 19 19 19 19 18 18 18 18 18 18 18 18 18 18 18 18 18 18 18 18 18 18 18 18 17 17 17 17 17 17 17 17 17 17 17
17 18 18 18 19 19 19 19 19 19 19 19 18 18 18 18 18 18 18 18 18 18 18 18 18 18 18 18 18 18 18 18 17 17 17 17 17 17 17 17 17 17 17
16 17 18 18 18 18 19 19 19 19 18 18 18 18 18 18 18 18 18 18 18 18 18 18 18 18 18 18 18 18 17 17 17 17 17 17 17 17 17 17 17 17 17
16 17 17 17 18 18 18 18 18 18 18 18 18 18 18 18 18 18 18 18 18 18 18 18 18 18 18 18 17 17 17 17 17 17 17 17 17 17 17 17 17 17 17
16 16 17 17 17 18 18 18 18 18 18 18 18 18 18 18 18 18 18 18 18 18 18 18 18 18 17 17 17 17 17 17 17 17 17 17 17 17 17 17 17 17 17
15 15 16 16 16 17 17 17 18 18 18 18 18 18 18 18 18 18 18 18 17 17 18 17 17 17 17 17 17 17 17 17 17 17 17 17 17 17 17 17 17 17 17
14 14 15 15 15 16 16 17 17 17 18 18 18 18 18 18 18 17 18 18 17 17 17 17 17 17 17 17 17 17 17 17 17 17 17 17 17 17 17 17 17 17 17
13 14 14 14 15 15 15 16 16 17 17 17 18 18 18 18 18 17 17 17 17 17 17 17 17 17 17 17 17 17 17 17 17 17 17 17 17 17 17 17 17 17 17
13 13 13 14 14 15 15 15 16 16 16 17 17 17 17 17 17 17 17 17 17 17 17 17 16 16 16 16 16 16 16 16 16 16 16 17 17 17 17 17 17 17 17
12 13 13 13 14 14 14 15 15 15 16 16 16 16 16 16 17 17 17 17 16 16 16 16 16 16 16 15 15 16 16 15 16 16 16 16 16 16 16 16 16 16 16
Wind_Speed
5 8 12 12 11 11 11 11 12 12 12 13 13 13 13 13 12 12 11 10 9 8 8 8 8 8 8 9 9 8 8 9 9 9 9 9 8 8 9 8 8 7 8
9 12 14 13 12 12 11 11 11 11 11 11 12 12 12 12 12 11 11 10 9 9 8 8 8 8 9 9 8 8 8 8 8 9 9 9 9 9 9 9 8 7 8
11 12 15 14 13 12 12 11 11 10 10 11 11 11 11 11 11 10 10 10 9 9 8 8 8 8 8 8 8 7 7 7 8 8 8 7 8 9 9 8 8 8 8
12 12 13 15 13 13 12 11 10 10 10 10 10 10 10 10 9 9 9 9 8 8 8 7 7 7 7 7 7 7 7 7 8 8 7 6 6 8 9 8 8 8 7
10 12 13 15 14 13 12 11 10 10 10 10 9 9 9 9 8 8 8 8 8 7 7 7 6 6 7 6 6 6 6 7 8 8 7 6 6 7 8 8 8 8 8
8 11 14 15 14 13 12 11 11 10 10 10 9 8 8 8 7 7 7 7 7 6 6 6 5 6 6 6 5 6 6 7 7 7 6 5 4 6 8 8 8 8 9
9 11 13 15 14 13 12 12 11 11 10 10 9 8 7 7 7 6 6 6 6 5 5 5 5 5 5 4 5 5 5 6 6 5 4 3 3 5 7 7 8 8 8
9 10 12 15 15 14 13 12 12 11 10 10 9 8 7 7 6 6 5 5 5 5 4 4 4 4 4 4 4 4 5 5 5 4 3 2 2 4 5 6 7 7 7
7 7 9 13 14 14 14 13 13 12 11 10 10 9 8 7 6 6 5 4 4 4 3 3 3 3 4 4 4 4 4 4 4 3 2 1 1 3 4 4 6 6 6
5 5 6 9 11 12 13 14 13 13 12 11 10 9 9 8 7 6 5 4 4 3 2 2 2 3 3 4 4 4 4 4 3 2 1 1 1 3 4 5 5 6 6
6 5 4 6 8 10 11 13 14 14 14 13 11 11 9 7 6 5 5 5 4 3 2 1 0 1 3 4 4 4 4 3 2 2 1 1 1 2 3 4 5 5 5
8 7 6 5 6 8 10 10 11 12 12 12 11 10 9 7 6 6 6 6 6 5 3 2 1 1 2 3 3 3 2 1 2 2 2 2 2 2 3 3 4 4 5
7 7 8 7 7 7 7 7 8 9 9 11 11 11 9 7 6 5 4 5 5 4 2 2 2 1 1 1 1 1 0 1 2 3 3 3 2 2 3 3 3 4 4
4 6 7 8 6 7 8 6 7 6 7 8 11 12 9 5 5 5 4 5 5 4 3 2 2 2 2 3 3 3 3 3 4 4 4 3 2 2 2 3 3 3 3
4 5 6 7 9 7 7 6 6 7 8 10 11 12 12 6 4 5 5 5 6 6 4 3 3 3 2 3 4 5 5 5 5 5 4 3 3 3 2 3 3 3 3
8 7 5 5 7 7 8 8 6 8 9 9 11 13 14 11 7 5 4 5 6 7 6 5 3 3 2 2 3 4 6 6 6 5 5 4 4 3 3 3 3 3 3
10 9 7 4 5 7 9 9 7 8 9 8 10 13 14 13 10 7 5 5 6 8 6 4 3 2 2 1 2 3 4 5 5 5 5 4 4 4 4 4 4 3 3
11 10 9 8 5 5 7 7 5 7 8 8 10 12 14 14 13 8 5 6 7 7 5 3 3 2 2 2 2 2 2 3 4 5 5 5 4 4 4 4 4 4 3
11 10 10 9 8 6 5 5 5 5 6 8 9 9 11 13 13 9 6 6 7 4 4 4 3 3 3 3 2 2 2 2 3 4 4 6 6 5 5 4 4 4 4
10 10 9 9 8 7 4 4 4 5 6 6 7 9 11 11 13 10 6 6 6 4 4 4 3 2 2 3 2 1 0 1 2 3 4 5 6 7 6 5 4 4 4
11 11 10 10 9 7 4 3 3 4 5 5 6 8 9 10 10 9 6 5 5 5 6 6 4 4 2 3 3 1 2 1 2 3 3 3 5 7 7 7 6 5 5
11 11 10 10 9 7 5 4 3 3 4 5 5 6 8 9 9 9 8 6 6 5 5 5 4 4 3 3 4 3 0 3 2 2 3 4 5 5 6 8 8 7 7
11 11 11 10 10 8 7 5 4 2 2 3 5 6 6 7 8 6 6 6 6 5 5 5 5 5 4 2 2 4 4 5 2 2 2 2 3 4 4 6 8 9 9
12 11 10 10 9 8 7 5 4 3 4 4 4 4 4 6 7 7 6 6 7 6 6 6 5 4 4 3 2 1 2 3 3 1 2 1 2 4 5 5 6 9 11
12 11 9 10 9 8 7 5 4 4 4 3 2 3 4 5 5 6 7 6 7 6 7 6 6 5 3 4 3 2 2 1 1 2 2 2 2 2 3 4 5 7 10
11 10 9 9 9 8 7 6 4 4 3 2 1 2 3 3 3 4 5 6 6 5 6 6 6 6 5 4 4 4 4 3 3 3 4 3 3 3 2 3 4 6 9
Wind_Direction
174 172 166 157 152 145 137 131 128 125 123 122 121 121 122 124 125 126 128 128 127 125 124 121 121 122 121 120 117 116 113 108 103 98 92 89 88 94 101 105 106 104 104
152 163 162 157 153 148 143 139 135 132 129 126 123 122 123 124 123 123 125 125 124 121 117 116 119 122 122 121 118 117 114 109 104 96 88 81 85 92 99 102 108 111 107
145 157 159 157 154 152 150 146 141 138 134 130 127 125 124 125 125 125 125 125 124 121 119 117 120 122 122 121 118 117 114 108 106 98 86 72 81 92 96 101 106 109 109
147 152 157 158 157 156 154 151 150 146 140 136 133 130 128 126 125 125 125 125 125 124 122 120 122 122 122 120 115 111 104 102 101 94 77 67 74 91 92 96 101 105 109
146 151 160 161 160 160 159 159 158 153 150 144 138 136 133 131 128 127 127 126 125 123 121 119 118 119 118 117 112 105 98 96 99 94 82 71 69 89 91 91 95 101 105
146 153 166 165 165 167 168 168 165 161 156 149 146 144 140 136 133 131 130 127 125 124 122 118 115 114 115 113 105 98 97 100 103 99 89 75 68 90 92 89 91 93 97
151 158 170 170 172 174 177 175 173 169 163 159 158 157 152 148 142 137 134 132 129 125 119 113 113 111 109 107 99 96 100 106 113 108 96 80 74 95 94 91 91 91 92
159 163 174 177 179 182 183 182 179 177 173 171 171 171 167 165 157 151 146 139 133 125 115 105 101 100 99 97 96 102 101 101 115 114 110 90 84 98 100 96 95 96 101
162 167 179 183 185 188 189 188 186 184 183 183 183 183 182 179 175 167 162 156 148 135 122 106 92 88 85 86 88 92 94 103 124 129 122 116 110 119 113 104 99 98 96
170 181 185 187 187 190 194 195 194 193 192 192 193 194 194 192 190 188 184 182 179 169 150 119 84 72 69 69 74 84 90 104 128 142 140 221 201 136 126 122 110 101 96
192 203 199 198 195 194 197 203 201 201 199 199 201 202 201 199 201 204 203 207 212 209 202 185 71 45 48 47 53 74 88 102 152 171 215 243 189 146 136 132 125 118 109
206 207 204 206 204 200 205 209 206 204 203 201 202 205 200 198 205 212 219 226 229 233 238 243 270 14 46 40 33 54 82 108 159 215 243 241 201 162 141 135 130 126 120
218 216 210 209 207 204 210 209 206 204 201 201 202 203 199 200 210 219 224 244 257 258 262 301 340 16 29 339 334 331 212 210 221 243 258 251 212 176 144 133 127 128 128
249 231 225 214 209 210 213 215 208 205 203 203 204 203 195 196 207 216 220 230 239 243 240 252 269 275 271 260 249 234 235 229 227 235 253 249 208 190 167 147 137 131 132
294 266 246 223 216 213 212 219 214 211 212 210 206 206 202 200 206 214 223 226 226 225 223 235 250 261 260 252 238 228 230 226 220 221 238 242 221 217 207 184 168 156 141
346 323 289 250 230 217 217 220 219 215 217 212 211 211 208 210 211 211 218 221 223 218 217 223 240 257 264 249 242 228 222 216 213 214 223 241 236 230 233 221 202 192 184
351 347 333 288 247 229 225 227 227 219 212 213 218 216 213 213 214 213 216 221 222 216 209 213 230 241 246 230 237 221 205 204 203 214 222 233 243 239 236 234 220 212 209
352 351 347 339 320 265 237 228 228 224 217 218 217 213 213 216 216 212 215 227 222 204 193 192 196 198 214 202 205 214 191 192 203 214 224 232 237 240 240 243 234 224 224
348 346 346 344 341 318 278 243 228 226 222 220 214 212 211 213 214 210 216 224 213 192 188 198 180 179 191 198 192 185 193 198 204 214 223 231 234 235 235 244 242 232 234
343 342 341 338 339 331 311 272 240 232 229 220 214 211 208 210 210 207 212 215 199 190 191 182 172 166 175 175 166 121 225 222 204 217 225 229 232 234 232 233 234 235 240
343 341 337 335 333 333 329 302 263 239 230 224 221 216 209 209 207 201 207 204 191 199 202 183 161 160 157 134 110 64 341 316 237 235 227 225 228 229 228 226 223 225 238
338 334 333 331 327 327 319 292 266 253 242 229 224 213 206 207 205 205 197 195 188 193 193 181 163 153 155 153 145 134 256 316 281 239 230 228 229 220 223 225 222 223 228
337 334 332 326 323 322 321 306 293 274 253 224 221 214 204 200 199 195 192 189 182 181 191 188 178 165 164 171 164 152 165 218 259 291 260 242 230 218 226 222 223 227 227
331 328 326 325 325 323 322 315 294 272 259 246 233 214 199 189 183 183 182 182 179 176 176 182 173 170 157 167 174 166 165 164 170 260 306 290 250 231 232 230 227 228 227
329 327 329 329 331 331 328 316 300 286 274 273 237 196 189 185 183 176 176 176 179 177 175 173 171 171 166 169 173 167 156 149 143 168 246 291 306 259 237 229 230 231 228
331 331 335 336 336 338 338 335 323 305 295 289 230 186 180 174 170 172 170 172 173 173 177 180 180 179 181 180 182 178 169 169 181 179 208 235 261 282 268 242 232 233 231
Height
1528 1531 1533 1536 1538 1540 1541 1543 1544 1545 1546 1547 1547 1548 1549 1550 1550 1551 1552 1553 1554 1554 1555 1556 1556 1556 1557 1557 1557 1558 1558 1558 1558 1558 1558 1558 1558 1558 1558 1558 1558 1558 1559
1528 1531 1534 1536 1538 1540 1542 1543 1545 1546 1547 1548 1548 1549 1550 1550 1551 1552 1553 1553 1554 1555 1556 1556 1556 1557 1557 1558 1558 1559 1559 1559 1559 1559 1559 1559 1559 1559 1559 1559 1559 1559 1560
1529 1531 1534 1537 1539 1541 1543 1544 1545 1547 1548 1549 1549 1550 1551 1551 1552 1552 1553 1554 1555 1555 1556 1556 1557 1558 1558 1559 1559 1559 1560 1560 1560 1560 1560 1560 1560 1560 1560 1560 1560 1560 1560
1530 1532 1535 1538 1540 1542 1544 1545 1546 1547 1548 1549 1550 1551 1551 1552 1552 1553 1554 1554 1555 1556 1556 1557 1557 1558 1559 1559 1560 1560 1561 1561 1561 1561 1562 1562 1561 1561 1561 1562 1562 1561 1561
1531 1534 1536 1539 1541 1543 1544 1546 1547 1548 1549 1550 1550 1551 1552 1552 1553 1553 1554 1554 1555 1556 1556 1557 1557 1558 1559 1560 1560 1561 1561 1562 1562 1562 1563 1563 1562 1562 1563 1563 1563 1563 1563
1532 1535 1537 1539 1541 1543 1545 1546 1547 1548 1549 1550 1551 1551 1552 1553 1553 1554 1554 1555 1555 1556 1556 1557 1558 1558 1559 1560 1560 1561 1562 1562 1563 1563 1563 1563 1563 1564 1564 1564 1564 1564 1564
1533 1536 1538 1540 1542 1544 1545 1546 1547 1548 1549 1550 1551 1552 1552 1553 1553 1554 1554 1555 1555 1556 1556 1557 1558 1558 1559 1560 1561 1561 1562 1563 1563 1564 1564 1564 1564 1564 1564 1565 1565 1565 1564
1535 1537 1539 1541 1542 1544 1545 1546 1548 1549 1549 1550 1551 1552 1552 1553 1553 1554 1554 1555 1555 1556 1556 1557 1557 1558 1559 1560 1561 1562 1562 1563 1564 1564 1564 1565 1565 1565 1565 1565 1565 1565 1566
1536 1538 1539 1541 1542 1544 1545 1546 1547 1548 1549 1550 1551 1552 1552 1553 1553 1554 1554 1555 1555 1556 1556 1557 1557 1558 1559 1560 1561 1562 1563 1563 1564 1564 1565 1565 1565 1565 1565 1566 1566 1566 1566
1537 1539 1540 1541 1542 1544 1545 1546 1547 1548 1549 1550 1551 1551 1552 1552 1553 1553 1554 1554 1555 1556 1556 1557 1557 1558 1559 1560 1561 1562 1563 1564 1564 1565 1565 1565 1565 1565 1566 1566 1566 1567 1567
1538 1539 1540 1541 1542 1543 1544 1545 1546 1547 1548 1549 1550 1551 1551 1552 1552 1553 1553 1554 1554 1555 1556 1557 1557 1558 1559 1560 1561 1562 1563 1564 1564 1565 1565 1565 1565 1565 1566 1566 1567 1567 1568
1538 1539 1540 1541 1542 1543 1544 1544 1545 1546 1547 1548 1549 1550 1550 1551 1552 1552 1552 1553 1554 1555 1556 1557 1557 1558 1559 1560 1561 1562 1563 1564 1565 1565 1565 1565 1565 1565 1565 1566 1567 1568 1568
1538 1539 1540 1541 1541 1542 1542 1543 1544 1544 1545 1546 1547 1548 1549 1550 1551 1551 1552 1552 1553 1554 1555 1556 1557 1558 1559 1560 1561 1562 1563 1564 1565 1565 1565 1565 1565 1565 1565 1566 1567 1568 1568
1538 1539 1540 1540 1540 1541 1541 1542 1542 1543 1544 1544 1545 1547 1548 1549 1549 1550 1551 1551 1552 1553 1554 1556 1557 1558 1559 1560 1561 1562 1563 1564 1565 1565 1565 1564 1564 1564 1565 1565 1566 1567 1568
1537 1537 1538 1538 1538 1539 1539 1540 1540 1541 1542 1543 1544 1545 1546 1547 1548 1549 1550 1550 1551 1552 1553 1555 1557 1558 1559 1560 1561 1562 1563 1564 1564 1565 1564 1564 1564 1564 1564 1565 1566 1567 1568
1535 1534 1535 1535 1536 1536 1537 1537 1538 1539 1539 1540 1541 1542 1544 1545 1546 1548 1549 1549 1550 1551 1553 1554 1556 1558 1559 1560 1561 1562 1563 1564 1564 1564 1564 1564 1563 1564 1564 1564 1565 1566 1567
1533 1532 1531 1532 1532 1533 1533 1534 1535 1536 1537 1537 1538 1539 1541 1543 1544 1546 1547 1548 1549 1551 1552 1553 1555 1557 1558 1559 1560 1561 1562 1563 1563 1563 1563 1563 1563 1563 1564 1564 1565 1566 1566
1532 1530 1529 1528 1528 1528 1529 1530 1531 1532 1533 1534 1535 1536 1538 1540 1542 1543 1545 1546 1548 1549 1550 1552 1554 1555 1557 1558 1559 1560 1561 1561 1562 1563 1563 1563 1563 1564 1564 1564 1564 1565 1566
1531 1529 1527 1525 1524 1524 1524 1525 1526 1527 1528 1530 1531 1532 1534 1536 1538 1540 1542 1543 1545 1546 1548 1550 1552 1553 1555 1556 1558 1558 1559 1560 1561 1561 1562 1563 1563 1564 1564 1564 1564 1565 1565
1530 1527 1525 1523 1521 1520 1519 1519 1520 1521 1523 1524 1526 1528 1529 1532 1534 1536 1538 1540 1542 1544 1545 1547 1549 1551 1553 1554 1556 1557 1557 1558 1559 1560 1561 1562 1563 1563 1564 1564 1564 1564 1565
1528 1525 1522 1520 1518 1516 1515 1515 1515 1516 1517 1518 1520 1522 1525 1527 1529 1532 1534 1536 1538 1540 1542 1544 1546 1548 1550 1552 1553 1554 1555 1556 1557 1558 1559 1560 1561 1562 1563 1563 1564 1564 1564
1526 1523 1520 1517 1514 1512 1511 1510 1510 1511 1511 1512 1515 1516 1519 1521 1524 1526 1528 1531 1534 1536 1539 1541 1543 1545 1546 1549 1550 1551 1552 1554 1553 1555 1556 1557 1558 1560 1561 1562 1562 1563 1563
1523 1520 1517 1514 1511 1509 1507 1506 1505 1506 1506 1508 1509 1511 1513 1516 1519 1521 1523 1526 1529 1531 1534 1536 1539 1541 1543 1545 1546 1548 1549 1549 1550 1551 1552 1553 1555 1556 1558 1559 1560 1561 1562
1522 1518 1515 1512 1509 1506 1504 1502 1502 1501 1501 1502 1504 1506 1508 1511 1513 1515 1518 1520 1523 1526 1528 1531 1534 1536 1539 1540 1542 1544 1546 1546 1548 1548 1549 1549 1551 1552 1554 1555 1557 1558 1559
1520 1516 1513 1510 1507 1504 1501 1500 1498 1498 1498 1498 1499 1501 1503 1505 1508 1510 1513 1516 1519 1521 1524 1526 1529 1531 1534 1536 1538 1539 1541 1542 1543 1545 1545 1546 1548 1549 1550 1552 1553 1554 1556
1519 1515 1511 1508 1505 1502 1499 1497 1496 1495 1495 1495 1496 1497 1499 1501 1504 1506 1509 1511 1514 1517 1519 1522 1524 1526 1529 1531 1533 1535 1536 1538 1539 1540 1541 1543 1544 1545 1546 1547 1549 1550 1552